Time,TemperatureF,DewpointF,PressureIn,WindDirection,WindDirectionDegrees,WindSpeedMPH,WindSpeedGustMPH,Humidity,HourlyPrecipIn,Conditions,Clouds,dailyrainin,SoftwareType,DateUTC
2014-01-01 00:01:00,23.5,12.7,30.22,WSW,250,0.0,-999.0,63,0.00,,,0.00,Wunderground v.1.15,2014-01-01 05:01:00,
2014-01-01 00:02:00,23.5,12.7,30.22,WSW,250,0.0,-999.0,63,0.00,,,0.00,Wunderground v.1.15,2014-01-01 05:02:00,
2014-01-01 00:03:00,23.5,12.7,30.22,WSW,250,0.0,-999.0,63,0.00,,,0.00,Wunderground v.1.15,2014-01-01 05:03:00,
2014-01-01 00:06:00,23.3,12.9,30.22,WSW,250,0.0,-999.0,64,0.00,,,0.00,Wunderground v.1.15,2014-01-01 05:06:00,
2014-01-01 00:12:00,23.3,12.6,30.22,WSW,250,0.0,-999.0,63,0.00,,,0.00,Wunderground v.1.15,2014-01-01 05:12:00,
2014-01-01 00:13:00,23.3,12.2,30.22,WSW,250,0.0,-999.0,62,0.00,,,0.00,Wunderground v.1.15,2014-01-01 05:13:00,
2014-01-01 00:19:00,23.5,12.4,30.22,WSW,250,0.0,-999.0,62,0.00,,,0.00,Wunderground v.1.15,2014-01-01 05:19:00,
2014-01-01 00:24:00,23.5,12.7,30.22,West,261,0.0,-999.0,63,0.00,,,0.00,Wunderground v.1.15,2014-01-01 05:24:00,
2014-01-01 00:30:00,23.8,13.4,30.22,West,269,4.0,-999.0,64,0.00,,,0.00,Wunderground v.1.15,2014-01-01 05:30:00,
2014-01-01 00:35:00,23.9,13.5,30.22,NW,311,2.0,-999.0,64,0.00,,,0.00,Wunderground v.1.15,2014-01-01 05:35:00,
2014-01-01 00:41:00,23.9,13.5,30.22,North,350,1.0,-999.0,64,0.00,,,0.00,Wunderground v.1.15,2014-01-01 05:41:00,
2014-01-01 00:47:00,23.9,13.5,30.22,WNW,287,2.0,-999.0,64,0.00,,,0.00,Wunderground v.1.15,2014-01-01 05:47:00,
2014-01-01 00:50:00,23.9,13.1,30.22,West,273,3.0,-999.0,63,0.00,,,0.00,Wunderground v.1.15,2014-01-01 05:50:00,
2014-01-01 00:56:00,23.9,12.8,30.23,West,266,2.0,-999.0,62,0.00,,,0.00,Wunderground v.1.15,2014-01-01 05:56:00,
2014-01-01 01:01:00,23.9,12.4,30.23,WNW,294,5.0,-999.0,61,0.00,,,0.00,Wunderground v.1.15,2014-01-01 06:01:00,
2014-01-01 01:07:00,23.9,11.6,30.23,West,280,3.0,-999.0,59,0.00,,,0.00,Wunderground v.1.15,2014-01-01 06:07:00,
2014-01-01 01:12:00,23.9,12.0,30.23,West,280,1.0,-999.0,60,0.00,,,0.00,Wunderground v.1.15,2014-01-01 06:12:00,
2014-01-01 01:17:00,23.8,11.9,30.23,West,280,0.0,-999.0,60,0.00,,,0.00,Wunderground v.1.15,2014-01-01 06:17:00,
2014-01-01 01:23:00,23.6,11.7,30.23,West,280,0.0,-999.0,60,0.00,,,0.00,Wunderground v.1.15,2014-01-01 06:23:00,
2014-01-01 01:28:00,23.5,11.6,30.23,West,280,0.0,-999.0,60,0.00,,,0.00,Wunderground v.1.15,2014-01-01 06:28:00,
2014-01-01 01:34:00,23.3,11.1,30.23,West,280,2.0,-999.0,59,0.00,,,0.00,Wunderground v.1.15,2014-01-01 06:34:00,
2014-01-01 01:39:00,23.2,11.0,30.25,West,280,1.0,-999.0,59,0.00,,,0.00,Wunderground v.1.15,2014-01-01 06:39:00,
2014-01-01 01:45:00,23.0,10.4,30.25,West,280,1.0,-999.0,58,0.00,,,0.00,Wunderground v.1.15,2014-01-01 06:45:00,
2014-01-01 01:51:00,22.9,10.3,30.25,West,280,1.0,-999.0,58,0.00,,,0.00,Wunderground v.1.15,2014-01-01 06:51:00,
2014-01-01 01:56:00,22.9,10.3,30.26,West,280,0.0,-999.0,58,0.00,,,0.00,Wunderground v.1.15,2014-01-01 06:56:00,
2014-01-01 02:01:00,22.7,10.1,30.26,West,280,0.0,-999.0,58,0.00,,,0.00,Wunderground v.1.15,2014-01-01 07:01:00,
2014-01-01 02:06:00,22.5,10.3,30.26,West,280,0.0,-999.0,59,0.00,,,0.00,Wunderground v.1.15,2014-01-01 07:06:00,
2014-01-01 02:11:00,22.2,10.0,30.26,West,280,0.0,-999.0,59,0.00,,,0.00,Wunderground v.1.15,2014-01-01 07:11:00,
2014-01-01 02:16:00,22.1,10.3,30.26,West,280,0.0,-999.0,60,0.00,,,0.00,Wunderground v.1.15,2014-01-01 07:16:00,
2014-01-01 02:21:00,21.6,10.2,30.26,West,280,0.0,-999.0,61,0.00,,,0.00,Wunderground v.1.15,2014-01-01 07:21:00,
2014-01-01 02:22:00,21.6,10.2,30.26,West,280,0.0,-999.0,61,0.00,,,0.00,Wunderground v.1.15,2014-01-01 07:22:00,
2014-01-01 02:27:00,21.1,9.7,30.27,West,280,0.0,-999.0,61,0.00,,,0.00,Wunderground v.1.15,2014-01-01 07:27:00,
2014-01-01 02:32:00,20.8,9.8,30.27,West,280,0.0,-999.0,62,0.00,,,0.00,Wunderground v.1.15,2014-01-01 07:32:00,
2014-01-01 02:37:00,20.5,9.9,30.27,West,280,0.0,-999.0,63,0.00,,,0.00,Wunderground v.1.15,2014-01-01 07:37:00,
2014-01-01 02:42:00,20.3,10.1,30.28,West,280,0.0,-999.0,64,0.00,,,0.00,Wunderground v.1.15,2014-01-01 07:42:00,
2014-01-01 02:47:00,20.5,9.5,30.28,West,280,0.0,-999.0,62,0.00,,,0.00,Wunderground v.1.15,2014-01-01 07:47:00,
2014-01-01 02:52:00,20.6,9.6,30.28,West,280,0.0,-999.0,62,0.00,,,0.00,Wunderground v.1.15,2014-01-01 07:52:00,
2014-01-01 02:57:00,20.6,9.6,30.28,West,280,0.0,-999.0,62,0.00,,,0.00,Wunderground v.1.15,2014-01-01 07:57:00,
2014-01-01 03:00:00,20.6,9.6,30.28,West,280,0.0,-999.0,62,0.00,,,0.00,Wunderground v.1.15,2014-01-01 08:00:00,
2014-01-01 03:05:00,20.3,9.3,30.28,West,280,0.0,-999.0,62,0.00,,,0.00,Wunderground v.1.15,2014-01-01 08:05:00,
2014-01-01 03:10:00,20.0,9.4,30.28,West,280,0.0,-999.0,63,0.00,,,0.00,Wunderground v.1.15,2014-01-01 08:10:00,
2014-01-01 03:15:00,19.7,9.1,30.28,West,280,1.0,-999.0,63,0.00,,,0.00,Wunderground v.1.15,2014-01-01 08:15:00,
2014-01-01 03:20:00,19.9,9.0,30.28,West,280,0.0,-999.0,62,0.00,,,0.00,Wunderground v.1.15,2014-01-01 08:20:00,
2014-01-01 03:25:00,20.0,9.1,30.29,West,280,0.0,-999.0,62,0.00,,,0.00,Wunderground v.1.15,2014-01-01 08:25:00,
2014-01-01 03:30:00,20.2,8.9,30.29,West,280,0.0,-999.0,61,0.00,,,0.00,Wunderground v.1.15,2014-01-01 08:30:00,
2014-01-01 03:35:00,20.2,8.9,30.29,West,280,0.0,-999.0,61,0.00,,,0.00,Wunderground v.1.15,2014-01-01 08:35:00,
2014-01-01 03:40:00,20.2,8.9,30.28,West,280,0.0,-999.0,61,0.00,,,0.00,Wunderground v.1.15,2014-01-01 08:40:00,
2014-01-01 03:45:00,20.0,9.1,30.28,West,280,0.0,-999.0,62,0.00,,,0.00,Wunderground v.1.15,2014-01-01 08:45:00,
2014-01-01 03:50:00,19.7,9.1,30.28,West,280,0.0,-999.0,63,0.00,,,0.00,Wunderground v.1.15,2014-01-01 08:50:00,
2014-01-01 03:56:00,19.5,8.9,30.29,West,280,0.0,-999.0,63,0.00,,,0.00,Wunderground v.1.15,2014-01-01 08:56:00,
2014-01-01 04:01:00,19.4,8.8,30.29,West,280,0.0,-999.0,63,0.00,,,0.00,Wunderground v.1.15,2014-01-01 09:01:00,
2014-01-01 04:06:00,19.2,8.7,30.29,West,280,0.0,-999.0,63,0.00,,,0.00,Wunderground v.1.15,2014-01-01 09:06:00,
2014-01-01 04:11:00,19.2,8.7,30.30,West,280,0.0,-999.0,63,0.00,,,0.00,Wunderground v.1.15,2014-01-01 09:11:00,
2014-01-01 04:16:00,18.9,8.4,30.30,West,280,0.0,-999.0,63,0.00,,,0.00,Wunderground v.1.15,2014-01-01 09:16:00,
2014-01-01 04:21:00,18.8,8.3,30.30,West,280,0.0,-999.0,63,0.00,,,0.00,Wunderground v.1.15,2014-01-01 09:21:00,
2014-01-01 04:26:00,18.6,8.4,30.31,West,280,0.0,-999.0,64,0.00,,,0.00,Wunderground v.1.15,2014-01-01 09:26:00,
2014-01-01 04:31:00,18.4,8.2,30.31,West,280,0.0,-999.0,64,0.00,,,0.00,Wunderground v.1.15,2014-01-01 09:31:00,
2014-01-01 04:36:00,18.1,8.0,30.31,West,280,0.0,-999.0,64,0.00,,,0.00,Wunderground v.1.15,2014-01-01 09:36:00,
2014-01-01 04:41:00,18.0,8.2,30.31,West,280,0.0,-999.0,65,0.00,,,0.00,Wunderground v.1.15,2014-01-01 09:41:00,
2014-01-01 04:46:00,17.7,7.9,30.31,West,280,0.0,-999.0,65,0.00,,,0.00,Wunderground v.1.15,2014-01-01 09:46:00,
2014-01-01 04:51:00,17.5,8.1,30.31,West,280,0.0,-999.0,66,0.00,,,0.00,Wunderground v.1.15,2014-01-01 09:51:00,
2014-01-01 04:56:00,17.5,7.7,30.31,West,280,0.0,-999.0,65,0.00,,,0.00,Wunderground v.1.15,2014-01-01 09:56:00,
2014-01-01 05:01:00,17.5,7.7,30.31,West,280,0.0,-999.0,65,0.00,,,0.00,Wunderground v.1.15,2014-01-01 10:01:00,
2014-01-01 05:06:00,17.5,7.7,30.31,West,280,0.0,-999.0,65,0.00,,,0.00,Wunderground v.1.15,2014-01-01 10:06:00,
2014-01-01 05:11:00,17.7,7.9,30.31,West,280,0.0,-999.0,65,0.00,,,0.00,Wunderground v.1.15,2014-01-01 10:11:00,
2014-01-01 05:16:00,17.5,7.7,30.31,West,280,0.0,-999.0,65,0.00,,,0.00,Wunderground v.1.15,2014-01-01 10:16:00,
2014-01-01 05:21:00,17.3,7.9,30.31,West,280,0.0,-999.0,66,0.00,,,0.00,Wunderground v.1.15,2014-01-01 10:21:00,
2014-01-01 05:26:00,17.3,7.9,30.31,West,280,0.0,-999.0,66,0.00,,,0.00,Wunderground v.1.15,2014-01-01 10:26:00,
2014-01-01 05:31:00,17.3,7.9,30.31,West,280,0.0,-999.0,66,0.00,,,0.00,Wunderground v.1.15,2014-01-01 10:31:00,
2014-01-01 05:36:00,17.3,8.2,30.31,West,280,0.0,-999.0,67,0.00,,,0.00,Wunderground v.1.15,2014-01-01 10:36:00,
2014-01-01 05:41:00,17.2,8.1,30.32,West,280,0.0,-999.0,67,0.00,,,0.00,Wunderground v.1.15,2014-01-01 10:41:00,
2014-01-01 05:46:00,17.3,8.2,30.32,West,280,0.0,-999.0,67,0.00,,,0.00,Wunderground v.1.15,2014-01-01 10:46:00,
2014-01-01 05:51:00,17.5,8.4,30.32,West,280,4.0,-999.0,67,0.00,,,0.00,Wunderground v.1.15,2014-01-01 10:51:00,
2014-01-01 05:56:00,17.7,8.3,30.32,West,280,2.0,-999.0,66,0.00,,,0.00,Wunderground v.1.15,2014-01-01 10:56:00,
2014-01-01 06:01:00,17.7,8.3,30.32,West,280,0.0,-999.0,66,0.00,,,0.00,Wunderground v.1.15,2014-01-01 11:01:00,
2014-01-01 06:06:00,17.7,7.9,30.32,West,280,2.0,-999.0,65,0.00,,,0.00,Wunderground v.1.15,2014-01-01 11:06:00,
2014-01-01 06:11:00,18.0,7.9,30.34,West,280,0.0,-999.0,64,0.00,,,0.00,Wunderground v.1.15,2014-01-01 11:11:00,
2014-01-01 06:16:00,18.1,8.0,30.34,West,280,0.0,-999.0,64,0.00,,,0.00,Wunderground v.1.15,2014-01-01 11:16:00,
2014-01-01 06:21:00,18.3,7.8,30.34,West,280,0.0,-999.0,63,0.00,,,0.00,Wunderground v.1.15,2014-01-01 11:21:00,
2014-01-01 06:26:00,18.4,7.5,30.34,West,280,0.0,-999.0,62,0.00,,,0.00,Wunderground v.1.15,2014-01-01 11:26:00,
2014-01-01 06:31:00,18.4,7.5,30.34,West,280,0.0,-999.0,62,0.00,,,0.00,Wunderground v.1.15,2014-01-01 11:31:00,
2014-01-01 06:36:00,18.4,7.5,30.34,West,280,0.0,-999.0,62,0.00,,,0.00,Wunderground v.1.15,2014-01-01 11:36:00,
2014-01-01 06:41:00,18.6,7.7,30.34,West,280,2.0,-999.0,62,0.00,,,0.00,Wunderground v.1.15,2014-01-01 11:41:00,
2014-01-01 06:46:00,18.6,7.4,30.34,West,280,0.0,-999.0,61,0.00,,,0.00,Wunderground v.1.15,2014-01-01 11:46:00,
2014-01-01 06:51:00,18.6,7.7,30.34,West,280,0.0,-999.0,62,0.00,,,0.00,Wunderground v.1.15,2014-01-01 11:51:00,
2014-01-01 06:56:00,18.4,7.5,30.34,West,280,2.0,-999.0,62,0.00,,,0.00,Wunderground v.1.15,2014-01-01 11:56:00,
2014-01-01 07:01:00,18.3,7.4,30.34,West,280,2.0,-999.0,62,0.00,,,0.00,Wunderground v.1.15,2014-01-01 12:01:00,
2014-01-01 07:07:00,18.6,7.7,30.34,West,280,2.0,-999.0,62,0.00,,,0.00,Wunderground v.1.15,2014-01-01 12:07:00,
2014-01-01 07:12:00,18.6,7.4,30.34,West,280,0.0,-999.0,61,0.00,,,0.00,Wunderground v.1.15,2014-01-01 12:12:00,
2014-01-01 07:17:00,18.6,7.4,30.34,West,280,0.0,-999.0,61,0.00,,,0.00,Wunderground v.1.15,2014-01-01 12:17:00,
2014-01-01 07:22:00,18.8,7.6,30.34,West,280,1.0,-999.0,61,0.00,,,0.00,Wunderground v.1.15,2014-01-01 12:22:00,
2014-01-01 07:27:00,19.2,7.2,30.35,West,280,4.0,-999.0,59,0.00,,,0.00,Wunderground v.1.15,2014-01-01 12:27:00,
2014-01-01 07:32:00,19.4,7.4,30.35,West,279,4.0,-999.0,59,0.00,,,0.00,Wunderground v.1.15,2014-01-01 12:32:00,
2014-01-01 07:37:00,19.4,7.4,30.35,West,279,3.0,-999.0,59,0.00,,,0.00,Wunderground v.1.15,2014-01-01 12:37:00,
2014-01-01 07:42:00,19.7,7.3,30.35,West,279,3.0,-999.0,58,0.00,,,0.00,Wunderground v.1.15,2014-01-01 12:42:00,
2014-01-01 07:47:00,19.7,7.3,30.35,West,279,3.0,-999.0,58,0.00,,,0.00,Wunderground v.1.15,2014-01-01 12:47:00,
2014-01-01 07:52:00,19.9,7.5,30.35,West,279,2.0,-999.0,58,0.00,,,0.00,Wunderground v.1.15,2014-01-01 12:52:00,
2014-01-01 07:57:00,19.9,7.5,30.35,West,279,2.0,-999.0,58,0.00,,,0.00,Wunderground v.1.15,2014-01-01 12:57:00,
2014-01-01 08:02:00,19.9,7.5,30.35,West,279,3.0,-999.0,58,0.00,,,0.00,Wunderground v.1.15,2014-01-01 13:02:00,
2014-01-01 08:07:00,20.0,7.6,30.35,West,266,4.0,-999.0,58,0.00,,,0.00,Wunderground v.1.15,2014-01-01 13:07:00,
2014-01-01 08:12:00,20.2,7.8,30.36,WSW,252,7.0,-999.0,58,0.00,,,0.00,Wunderground v.1.15,2014-01-01 13:12:00,
2014-01-01 08:17:00,20.2,8.1,30.36,WSW,250,4.0,-999.0,59,0.00,,,0.00,Wunderground v.1.15,2014-01-01 13:17:00,
2014-01-01 08:22:00,20.2,8.1,30.36,WSW,252,9.0,-999.0,59,0.00,,,0.00,Wunderground v.1.15,2014-01-01 13:22:00,
2014-01-01 08:27:00,20.3,8.2,30.37,WSW,251,9.0,-999.0,59,0.00,,,0.00,Wunderground v.1.15,2014-01-01 13:27:00,
2014-01-01 08:32:00,20.5,8.0,30.37,WSW,254,4.0,-999.0,58,0.00,,,0.00,Wunderground v.1.15,2014-01-01 13:32:00,
2014-01-01 08:37:00,20.6,8.1,30.37,WSW,246,7.0,-999.0,58,0.00,,,0.00,Wunderground v.1.15,2014-01-01 13:37:00,
2014-01-01 08:42:00,20.8,8.3,30.37,WSW,244,6.0,-999.0,58,0.00,,,0.00,Wunderground v.1.15,2014-01-01 13:42:00,
2014-01-01 08:47:00,20.8,8.3,30.37,WSW,251,6.0,-999.0,58,0.00,,,0.00,Wunderground v.1.15,2014-01-01 13:47:00,
2014-01-01 08:52:00,21.0,8.5,30.37,WSW,250,5.0,-999.0,58,0.00,,,0.00,Wunderground v.1.15,2014-01-01 13:52:00,
2014-01-01 08:57:00,21.1,8.2,30.38,WSW,257,2.0,-999.0,57,0.00,,,0.00,Wunderground v.1.15,2014-01-01 13:57:00,
2014-01-01 09:02:00,21.3,8.8,30.38,WSW,255,1.0,-999.0,58,0.00,,,0.00,Wunderground v.1.15,2014-01-01 14:02:00,
2014-01-01 09:07:00,21.6,9.1,30.38,WSW,246,2.0,-999.0,58,0.00,,,0.00,Wunderground v.1.15,2014-01-01 14:07:00,
2014-01-01 09:12:00,21.8,8.5,30.39,WSW,246,3.0,-999.0,56,0.00,,,0.00,Wunderground v.1.15,2014-01-01 14:12:00,
2014-01-01 09:17:00,22.1,8.4,30.39,SW,230,3.0,-999.0,55,0.00,,,0.00,Wunderground v.1.15,2014-01-01 14:17:00,
2014-01-01 09:22:00,22.4,8.7,30.39,WSW,257,10.0,-999.0,55,0.00,,,0.00,Wunderground v.1.15,2014-01-01 14:22:00,
2014-01-01 09:27:00,22.5,8.7,30.38,WSW,250,4.0,-999.0,55,0.00,,,0.00,Wunderground v.1.15,2014-01-01 14:27:00,
2014-01-01 09:32:00,23.0,9.2,30.38,WSW,246,5.0,-999.0,55,0.00,,,0.00,Wunderground v.1.15,2014-01-01 14:32:00,
2014-01-01 09:37:00,23.2,9.4,30.38,WSW,254,4.0,-999.0,55,0.00,,,0.00,Wunderground v.1.15,2014-01-01 14:37:00,
2014-01-01 09:42:00,23.6,9.4,30.38,West,273,5.0,-999.0,54,0.00,,,0.00,Wunderground v.1.15,2014-01-01 14:42:00,
2014-01-01 09:47:00,24.1,9.0,30.38,WNW,290,4.0,-999.0,52,0.00,,,0.00,Wunderground v.1.15,2014-01-01 14:47:00,
2014-01-01 09:52:00,24.1,9.4,30.38,West,274,3.0,-999.0,53,0.00,,,0.00,Wunderground v.1.15,2014-01-01 14:52:00,
2014-01-01 09:57:00,24.2,9.1,30.38,WSW,249,5.0,-999.0,52,0.00,,,0.00,Wunderground v.1.15,2014-01-01 14:57:00,
2014-01-01 10:02:00,24.2,9.1,30.38,West,259,6.0,-999.0,52,0.00,,,0.00,Wunderground v.1.15,2014-01-01 15:02:00,
2014-01-01 10:07:00,24.4,9.3,30.38,SW,233,3.0,-999.0,52,0.00,,,0.00,Wunderground v.1.15,2014-01-01 15:07:00,
2014-01-01 10:12:00,25.0,9.8,30.38,WSW,241,5.0,-999.0,52,0.00,,,0.00,Wunderground v.1.15,2014-01-01 15:12:00,
2014-01-01 10:18:00,25.3,9.2,30.38,West,279,3.0,-999.0,50,0.00,,,0.00,Wunderground v.1.15,2014-01-01 15:18:00,
2014-01-01 10:23:00,25.1,9.0,30.38,West,260,13.0,-999.0,50,0.00,,,0.00,Wunderground v.1.15,2014-01-01 15:23:00,
2014-01-01 10:28:00,24.7,8.7,30.38,SW,236,9.0,-999.0,50,0.00,,,0.00,Wunderground v.1.15,2014-01-01 15:28:00,
2014-01-01 10:33:00,24.7,8.7,30.38,WSW,240,10.0,-999.0,50,0.00,,,0.00,Wunderground v.1.15,2014-01-01 15:33:00,
2014-01-01 10:38:00,24.7,8.2,30.37,WSW,238,7.0,-999.0,49,0.00,,,0.00,Wunderground v.1.15,2014-01-01 15:38:00,
2014-01-01 10:43:00,24.8,8.3,30.37,West,272,6.0,-999.0,49,0.00,,,0.00,Wunderground v.1.15,2014-01-01 15:43:00,
2014-01-01 10:48:00,24.8,8.3,30.37,SW,234,10.0,-999.0,49,0.00,,,0.00,Wunderground v.1.15,2014-01-01 15:48:00,
2014-01-01 10:53:00,25.4,9.3,30.37,WSW,250,6.0,-999.0,50,0.00,,,0.00,Wunderground v.1.15,2014-01-01 15:53:00,
2014-01-01 10:58:00,26.1,9.1,30.37,West,273,6.0,-999.0,48,0.00,,,0.00,Wunderground v.1.15,2014-01-01 15:58:00,
2014-01-01 11:03:00,26.4,8.4,30.37,West,275,7.0,-999.0,46,0.00,,,0.00,Wunderground v.1.15,2014-01-01 16:03:00,
2014-01-01 11:08:00,26.4,7.9,30.35,WNW,291,2.0,-999.0,45,0.00,,,0.00,Wunderground v.1.15,2014-01-01 16:08:00,
2014-01-01 11:13:00,26.7,8.2,30.35,SW,220,3.0,-999.0,45,0.00,,,0.00,Wunderground v.1.15,2014-01-01 16:13:00,
2014-01-01 11:18:00,26.4,7.9,30.35,WNW,290,6.0,-999.0,45,0.00,,,0.00,Wunderground v.1.15,2014-01-01 16:18:00,
2014-01-01 11:23:00,26.9,8.4,30.35,West,261,2.0,-999.0,45,0.00,,,0.00,Wunderground v.1.15,2014-01-01 16:23:00,
2014-01-01 11:28:00,27.3,7.7,30.35,West,277,7.0,-999.0,43,0.00,,,0.00,Wunderground v.1.15,2014-01-01 16:28:00,
2014-01-01 11:33:00,26.6,6.6,30.35,West,272,11.0,-999.0,42,0.00,,,0.00,Wunderground v.1.15,2014-01-01 16:33:00,
2014-01-01 11:38:00,26.4,7.4,30.35,West,281,8.0,-999.0,44,0.00,,,0.00,Wunderground v.1.15,2014-01-01 16:38:00,
2014-01-01 11:43:00,26.3,6.8,30.35,WSW,256,5.0,-999.0,43,0.00,,,0.00,Wunderground v.1.15,2014-01-01 16:43:00,
2014-01-01 11:48:00,26.6,6.6,30.35,SW,234,5.0,-999.0,42,0.00,,,0.00,Wunderground v.1.15,2014-01-01 16:48:00,
2014-01-01 11:53:00,27.2,7.1,30.34,SSW,198,1.0,-999.0,42,0.00,,,0.00,Wunderground v.1.15,2014-01-01 16:53:00,
2014-01-01 11:58:00,27.3,6.1,30.34,West,266,4.0,-999.0,40,0.00,,,0.00,Wunderground v.1.15,2014-01-01 16:58:00,
2014-01-01 12:03:00,27.3,6.7,30.34,WSW,250,6.0,-999.0,41,0.00,,,0.00,Wunderground v.1.15,2014-01-01 17:03:00,
2014-01-01 12:08:00,27.2,6.6,30.33,WSW,245,6.0,-999.0,41,0.00,,,0.00,Wunderground v.1.15,2014-01-01 17:08:00,
2014-01-01 12:13:00,27.0,6.4,30.33,WSW,246,10.0,-999.0,41,0.00,,,0.00,Wunderground v.1.15,2014-01-01 17:13:00,
2014-01-01 12:18:00,27.0,6.4,30.33,West,268,4.0,-999.0,41,0.00,,,0.00,Wunderground v.1.15,2014-01-01 17:18:00,
2014-01-01 12:23:00,27.5,6.8,30.33,West,273,5.0,-999.0,41,0.00,,,0.00,Wunderground v.1.15,2014-01-01 17:23:00,
2014-01-01 12:28:00,27.5,5.7,30.33,WNW,282,4.0,-999.0,39,0.00,,,0.00,Wunderground v.1.15,2014-01-01 17:28:00,
2014-01-01 12:33:00,27.6,6.4,30.33,WNW,303,3.0,-999.0,40,0.00,,,0.00,Wunderground v.1.15,2014-01-01 17:33:00,
2014-01-01 12:38:00,28.8,7.5,30.33,WSW,250,7.0,-999.0,40,0.00,,,0.00,Wunderground v.1.15,2014-01-01 17:38:00,
2014-01-01 12:43:00,28.5,7.2,30.33,WSW,240,5.0,-999.0,40,0.00,,,0.00,Wunderground v.1.15,2014-01-01 17:43:00,
2014-01-01 12:48:00,28.8,6.3,30.33,West,263,5.0,-999.0,38,0.00,,,0.00,Wunderground v.1.15,2014-01-01 17:48:00,
2014-01-01 12:53:00,28.8,6.9,30.33,NW,307,4.0,-999.0,39,0.00,,,0.00,Wunderground v.1.15,2014-01-01 17:53:00,
2014-01-01 12:58:00,28.8,8.0,30.33,West,259,5.0,-999.0,41,0.00,,,0.00,Wunderground v.1.15,2014-01-01 17:58:00,
2014-01-01 13:04:00,28.7,5.7,30.33,West,267,8.0,-999.0,37,0.00,,,0.00,Wunderground v.1.15,2014-01-01 18:04:00,
2014-01-01 13:09:00,28.5,6.1,30.33,WNW,289,5.0,-999.0,38,0.00,,,0.00,Wunderground v.1.15,2014-01-01 18:09:00,
2014-01-01 13:14:00,28.7,6.3,30.33,NNW,329,8.0,-999.0,38,0.00,,,0.00,Wunderground v.1.15,2014-01-01 18:14:00,
2014-01-01 13:19:00,29.0,7.1,30.33,WNW,286,3.0,-999.0,39,0.00,,,0.00,Wunderground v.1.15,2014-01-01 18:19:00,
2014-01-01 13:24:00,28.8,6.3,30.33,SW,228,7.0,-999.0,38,0.00,,,0.00,Wunderground v.1.15,2014-01-01 18:24:00,
2014-01-01 13:29:00,28.4,6.0,30.33,WSW,255,9.0,-999.0,38,0.00,,,0.00,Wunderground v.1.15,2014-01-01 18:29:00,
2014-01-01 13:34:00,28.2,6.4,30.33,West,279,6.0,-999.0,39,0.00,,,0.00,Wunderground v.1.15,2014-01-01 18:34:00,
2014-01-01 13:39:00,28.4,7.1,30.33,West,270,4.0,-999.0,40,0.00,,,0.00,Wunderground v.1.15,2014-01-01 18:39:00,
2014-01-01 13:44:00,28.7,6.8,30.33,West,265,2.0,-999.0,39,0.00,,,0.00,Wunderground v.1.15,2014-01-01 18:44:00,
2014-01-01 13:49:00,29.0,6.5,30.33,West,265,0.0,-999.0,38,0.00,,,0.00,Wunderground v.1.15,2014-01-01 18:49:00,
2014-01-01 13:54:00,29.3,7.4,30.33,WSW,258,3.0,-999.0,39,0.00,,,0.00,Wunderground v.1.15,2014-01-01 18:54:00,
2014-01-01 13:59:00,29.4,6.9,30.33,WSW,246,1.0,-999.0,38,0.00,,,0.00,Wunderground v.1.15,2014-01-01 18:59:00,
2014-01-01 14:04:00,29.7,7.2,30.33,WSW,247,6.0,-999.0,38,0.00,,,0.00,Wunderground v.1.15,2014-01-01 19:04:00,
2014-01-01 14:09:00,29.8,7.2,30.32,SSW,209,6.0,-999.0,38,0.00,,,0.00,Wunderground v.1.15,2014-01-01 19:09:00,
2014-01-01 14:14:00,29.4,6.9,30.32,SW,233,2.0,-999.0,38,0.00,,,0.00,Wunderground v.1.15,2014-01-01 19:14:00,
2014-01-01 14:19:00,29.7,8.3,30.32,West,261,3.0,-999.0,40,0.00,,,0.00,Wunderground v.1.15,2014-01-01 19:19:00,
2014-01-01 14:24:00,29.7,7.2,30.32,WSW,241,7.0,-999.0,38,0.00,,,0.00,Wunderground v.1.15,2014-01-01 19:24:00,
2014-01-01 14:29:00,30.0,7.4,30.32,West,281,1.0,-999.0,38,0.00,,,0.00,Wunderground v.1.15,2014-01-01 19:29:00,
2014-01-01 14:34:00,30.1,6.9,30.32,WNW,292,0.0,-999.0,37,0.00,,,0.00,Wunderground v.1.15,2014-01-01 19:34:00,
2014-01-01 14:39:00,30.4,7.8,30.32,WNW,300,3.0,-999.0,38,0.00,,,0.00,Wunderground v.1.15,2014-01-01 19:39:00,
2014-01-01 14:44:00,30.6,8.0,30.32,West,276,6.0,-999.0,38,0.00,,,0.00,Wunderground v.1.15,2014-01-01 19:44:00,
2014-01-01 14:49:00,30.1,7.5,30.32,WSW,239,8.0,-999.0,38,0.00,,,0.00,Wunderground v.1.15,2014-01-01 19:49:00,
2014-01-01 14:54:00,29.8,7.8,30.32,WNW,282,1.0,-999.0,39,0.00,,,0.00,Wunderground v.1.15,2014-01-01 19:54:00,
2014-01-01 14:59:00,30.0,8.6,30.32,WNW,282,1.0,-999.0,40,0.00,,,0.00,Wunderground v.1.15,2014-01-01 19:59:00,
2014-01-01 15:04:00,30.1,8.7,30.32,WNW,282,0.0,-999.0,40,0.00,,,0.00,Wunderground v.1.15,2014-01-01 20:04:00,
2014-01-01 15:09:00,29.8,7.8,30.32,West,265,2.0,-999.0,39,0.00,,,0.00,Wunderground v.1.15,2014-01-01 20:09:00,
2014-01-01 15:14:00,29.7,8.3,30.32,West,262,2.0,-999.0,40,0.00,,,0.00,Wunderground v.1.15,2014-01-01 20:14:00,
2014-01-01 15:19:00,29.5,8.7,30.32,West,261,3.0,-999.0,41,0.00,,,0.00,Wunderground v.1.15,2014-01-01 20:19:00,
2014-01-01 15:24:00,29.5,8.7,30.32,West,275,2.0,-999.0,41,0.00,,,0.00,Wunderground v.1.15,2014-01-01 20:24:00,
2014-01-01 15:29:00,29.5,8.7,30.32,WNW,299,4.0,-999.0,41,0.00,,,0.00,Wunderground v.1.15,2014-01-01 20:29:00,
2014-01-01 15:34:00,29.4,8.6,30.32,NW,307,5.0,-999.0,41,0.00,,,0.00,Wunderground v.1.15,2014-01-01 20:34:00,
2014-01-01 15:39:00,29.5,9.2,30.32,WSW,247,4.0,-999.0,42,0.00,,,0.00,Wunderground v.1.15,2014-01-01 20:39:00,
2014-01-01 15:44:00,29.4,9.1,30.32,West,277,1.0,-999.0,42,0.00,,,0.00,Wunderground v.1.15,2014-01-01 20:44:00,
2014-01-01 15:49:00,29.4,9.1,30.32,West,277,0.0,-999.0,42,0.00,,,0.00,Wunderground v.1.15,2014-01-01 20:49:00,
2014-01-01 15:54:00,29.4,10.1,30.32,West,277,0.0,-999.0,44,0.00,,,0.00,Wunderground v.1.15,2014-01-01 20:54:00,
2014-01-01 15:59:00,29.4,9.6,30.32,WSW,255,6.0,-999.0,43,0.00,,,0.00,Wunderground v.1.15,2014-01-01 20:59:00,
2014-01-01 16:04:00,29.4,9.6,30.32,WSW,254,0.0,-999.0,43,0.00,,,0.00,Wunderground v.1.15,2014-01-01 21:04:00,
2014-01-01 16:09:00,29.3,9.5,30.32,West,259,0.0,-999.0,43,0.00,,,0.00,Wunderground v.1.15,2014-01-01 21:09:00,
2014-01-01 16:14:00,29.3,10.1,30.32,West,261,5.0,-999.0,44,0.00,,,0.00,Wunderground v.1.15,2014-01-01 21:14:00,
2014-01-01 16:19:00,29.3,9.5,30.32,West,261,1.0,-999.0,43,0.00,,,0.00,Wunderground v.1.15,2014-01-01 21:19:00,
2014-01-01 16:24:00,29.3,10.1,30.32,West,261,0.0,-999.0,44,0.00,,,0.00,Wunderground v.1.15,2014-01-01 21:24:00,
2014-01-01 16:29:00,29.3,10.1,30.32,West,260,0.0,-999.0,44,0.00,,,0.00,Wunderground v.1.15,2014-01-01 21:29:00,
2014-01-01 16:34:00,29.1,9.9,30.32,West,261,4.0,-999.0,44,0.00,,,0.00,Wunderground v.1.15,2014-01-01 21:34:00,
2014-01-01 16:39:00,29.1,10.4,30.32,West,261,0.0,-999.0,45,0.00,,,0.00,Wunderground v.1.15,2014-01-01 21:39:00,
2014-01-01 16:44:00,29.1,10.4,30.32,West,261,2.0,-999.0,45,0.00,,,0.00,Wunderground v.1.15,2014-01-01 21:44:00,
2014-01-01 16:49:00,29.0,10.8,30.32,West,261,0.0,-999.0,46,0.00,,,0.00,Wunderground v.1.15,2014-01-01 21:49:00,
2014-01-01 16:54:00,29.0,10.3,30.32,West,261,3.0,-999.0,45,0.00,,,0.00,Wunderground v.1.15,2014-01-01 21:54:00,
2014-01-01 17:00:00,28.8,10.6,30.32,West,261,0.0,-999.0,46,0.00,,,0.00,Wunderground v.1.15,2014-01-01 22:00:00,
2014-01-01 17:05:00,28.8,10.6,30.32,West,261,1.0,-999.0,46,0.00,,,0.00,Wunderground v.1.15,2014-01-01 22:05:00,
2014-01-01 17:10:00,28.7,10.0,30.32,West,261,2.0,-999.0,45,0.00,,,0.00,Wunderground v.1.15,2014-01-01 22:10:00,
2014-01-01 17:15:00,28.5,9.8,30.32,West,261,0.0,-999.0,45,0.00,,,0.00,Wunderground v.1.15,2014-01-01 22:15:00,
2014-01-01 17:20:00,28.5,9.8,30.32,West,261,0.0,-999.0,45,0.00,,,0.00,Wunderground v.1.15,2014-01-01 22:20:00,
2014-01-01 17:25:00,28.4,10.2,30.32,West,261,0.0,-999.0,46,0.00,,,0.00,Wunderground v.1.15,2014-01-01 22:25:00,
2014-01-01 17:30:00,28.2,10.0,30.32,West,261,0.0,-999.0,46,0.00,,,0.00,Wunderground v.1.15,2014-01-01 22:30:00,
2014-01-01 17:35:00,28.2,10.5,30.32,West,261,0.0,-999.0,47,0.00,,,0.00,Wunderground v.1.15,2014-01-01 22:35:00,
2014-01-01 17:40:00,28.1,10.4,30.32,West,261,0.0,-999.0,47,0.00,,,0.00,Wunderground v.1.15,2014-01-01 22:40:00,
2014-01-01 17:45:00,27.9,10.2,30.32,West,261,0.0,-999.0,47,0.00,,,0.00,Wunderground v.1.15,2014-01-01 22:45:00,
2014-01-01 17:50:00,27.8,10.6,30.32,West,261,0.0,-999.0,48,0.00,,,0.00,Wunderground v.1.15,2014-01-01 22:50:00,
2014-01-01 17:55:00,27.5,10.4,30.33,West,261,0.0,-999.0,48,0.00,,,0.00,Wunderground v.1.15,2014-01-01 22:55:00,
2014-01-01 18:00:00,27.3,10.2,30.33,West,261,0.0,-999.0,48,0.00,,,0.00,Wunderground v.1.15,2014-01-01 23:00:00,
2014-01-01 18:05:00,27.2,10.1,30.33,West,261,0.0,-999.0,48,0.00,,,0.00,Wunderground v.1.15,2014-01-01 23:05:00,
2014-01-01 18:10:00,27.0,10.4,30.33,West,261,0.0,-999.0,49,0.00,,,0.00,Wunderground v.1.15,2014-01-01 23:10:00,
2014-01-01 18:15:00,26.9,10.7,30.33,West,261,0.0,-999.0,50,0.00,,,0.00,Wunderground v.1.15,2014-01-01 23:15:00,
2014-01-01 18:20:00,26.7,10.5,30.33,West,261,0.0,-999.0,50,0.00,,,0.00,Wunderground v.1.15,2014-01-01 23:20:00,
2014-01-01 18:25:00,26.6,10.9,30.34,West,261,0.0,-999.0,51,0.00,,,0.00,Wunderground v.1.15,2014-01-01 23:25:00,
2014-01-01 18:30:00,26.4,10.7,30.34,West,261,0.0,-999.0,51,0.00,,,0.00,Wunderground v.1.15,2014-01-01 23:30:00,
2014-01-01 18:35:00,26.4,10.7,30.34,West,261,0.0,-999.0,51,0.00,,,0.00,Wunderground v.1.15,2014-01-01 23:35:00,
2014-01-01 18:40:00,26.3,10.6,30.34,West,261,0.0,-999.0,51,0.00,,,0.00,Wunderground v.1.15,2014-01-01 23:40:00,
2014-01-01 18:45:00,26.3,10.6,30.34,West,261,0.0,-999.0,51,0.00,,,0.00,Wunderground v.1.15,2014-01-01 23:45:00,
2014-01-01 18:50:00,26.3,10.6,30.34,West,261,0.0,-999.0,51,0.00,,,0.00,Wunderground v.1.15,2014-01-01 23:50:00,
2014-01-01 18:55:00,26.3,10.6,30.34,West,261,0.0,-999.0,51,0.00,,,0.00,Wunderground v.1.15,2014-01-01 23:55:00,
2014-01-01 19:00:00,26.3,10.6,30.34,West,261,0.0,-999.0,51,0.00,,,0.00,Wunderground v.1.15,2014-01-02 00:00:00,
2014-01-01 19:05:00,26.3,10.6,30.34,West,261,0.0,-999.0,51,0.00,,,0.00,Wunderground v.1.15,2014-01-02 00:05:00,
2014-01-01 19:10:00,26.3,10.6,30.34,West,261,0.0,-999.0,51,0.00,,,0.00,Wunderground v.1.15,2014-01-02 00:10:00,
2014-01-01 19:15:00,26.3,10.6,30.34,West,261,0.0,-999.0,51,0.00,,,0.00,Wunderground v.1.15,2014-01-02 00:15:00,
2014-01-01 19:20:00,26.3,11.0,30.34,West,261,0.0,-999.0,52,0.00,,,0.00,Wunderground v.1.15,2014-01-02 00:20:00,
2014-01-01 19:25:00,26.3,11.0,30.34,West,261,0.0,-999.0,52,0.00,,,0.00,Wunderground v.1.15,2014-01-02 00:25:00,
2014-01-01 19:30:00,26.3,11.0,30.34,West,261,0.0,-999.0,52,0.00,,,0.00,Wunderground v.1.15,2014-01-02 00:30:00,
2014-01-01 19:35:00,26.4,11.1,30.34,West,261,0.0,-999.0,52,0.00,,,0.00,Wunderground v.1.15,2014-01-02 00:35:00,
2014-01-01 19:40:00,26.3,11.0,30.34,West,261,0.0,-999.0,52,0.00,,,0.00,Wunderground v.1.15,2014-01-02 00:40:00,
2014-01-01 19:45:00,26.3,11.0,30.34,West,261,0.0,-999.0,52,0.00,,,0.00,Wunderground v.1.15,2014-01-02 00:45:00,
2014-01-01 19:50:00,26.3,11.0,30.34,West,261,0.0,-999.0,52,0.00,,,0.00,Wunderground v.1.15,2014-01-02 00:50:00,
2014-01-01 19:56:00,26.1,11.7,30.34,West,261,0.0,-999.0,54,0.00,,,0.00,Wunderground v.1.15,2014-01-02 00:56:00,
2014-01-01 20:00:00,26.1,11.7,30.34,West,261,0.0,-999.0,54,0.00,,,0.00,Wunderground v.1.15,2014-01-02 01:00:00,
2014-01-01 20:06:00,26.0,12.4,30.34,West,261,0.0,-999.0,56,0.00,,,0.00,Wunderground v.1.15,2014-01-02 01:06:00,
2014-01-01 20:11:00,26.0,13.2,30.35,West,261,0.0,-999.0,58,0.00,,,0.00,Wunderground v.1.15,2014-01-02 01:11:00,
2014-01-01 20:16:00,25.8,13.0,30.35,West,261,0.0,-999.0,58,0.00,,,0.00,Wunderground v.1.15,2014-01-02 01:16:00,
2014-01-01 20:20:00,25.7,12.2,30.35,West,261,0.0,-999.0,56,0.00,,,0.00,Wunderground v.1.15,2014-01-02 01:20:00,
2014-01-01 20:26:00,25.7,12.2,30.35,West,261,0.0,-999.0,56,0.00,,,0.00,Wunderground v.1.15,2014-01-02 01:26:00,
2014-01-01 20:31:00,25.8,11.8,30.35,West,261,0.0,-999.0,55,0.00,,,0.00,Wunderground v.1.15,2014-01-02 01:31:00,
2014-01-01 20:36:00,25.8,11.4,30.35,West,261,0.0,-999.0,54,0.00,,,0.00,Wunderground v.1.15,2014-01-02 01:36:00,
2014-01-01 20:41:00,26.0,11.6,30.34,West,261,0.0,-999.0,54,0.00,,,0.00,Wunderground v.1.15,2014-01-02 01:41:00,
2014-01-01 20:46:00,26.0,12.0,30.34,West,261,0.0,-999.0,55,0.00,,,0.00,Wunderground v.1.15,2014-01-02 01:46:00,
2014-01-01 20:51:00,26.1,12.1,30.34,West,261,0.0,-999.0,55,0.00,,,0.00,Wunderground v.1.15,2014-01-02 01:51:00,
2014-01-01 20:56:00,26.1,12.1,30.34,West,261,0.0,-999.0,55,0.00,,,0.00,Wunderground v.1.15,2014-01-02 01:56:00,
2014-01-01 21:01:00,26.1,12.5,30.34,West,261,0.0,-999.0,56,0.00,,,0.00,Wunderground v.1.15,2014-01-02 02:01:00,
2014-01-01 21:06:00,26.1,12.5,30.34,West,261,0.0,-999.0,56,0.00,,,0.00,Wunderground v.1.15,2014-01-02 02:06:00,
2014-01-01 21:11:00,26.3,13.1,30.33,West,270,1.0,-999.0,57,0.00,,,0.00,Wunderground v.1.15,2014-01-02 02:11:00,
2014-01-01 21:16:00,26.3,13.1,30.33,NNW,327,0.0,-999.0,57,0.00,,,0.00,Wunderground v.1.15,2014-01-02 02:16:00,
2014-01-01 21:21:00,26.4,12.8,30.33,NNW,339,1.0,-999.0,56,0.00,,,0.00,Wunderground v.1.15,2014-01-02 02:21:00,
2014-01-01 21:26:00,26.6,12.6,30.32,North,351,0.0,-999.0,55,0.00,,,0.00,Wunderground v.1.15,2014-01-02 02:26:00,
2014-01-01 21:31:00,26.7,12.7,30.32,North,351,0.0,-999.0,55,0.00,,,0.00,Wunderground v.1.15,2014-01-02 02:31:00,
2014-01-01 21:36:00,26.7,12.7,30.32,North,351,1.0,-999.0,55,0.00,,,0.00,Wunderground v.1.15,2014-01-02 02:36:00,
2014-01-01 21:41:00,26.9,12.9,30.32,NNE,12,4.0,-999.0,55,0.00,,,0.00,Wunderground v.1.15,2014-01-02 02:41:00,
2014-01-01 21:46:00,26.9,12.9,30.32,NNE,21,0.0,-999.0,55,0.00,,,0.00,Wunderground v.1.15,2014-01-02 02:46:00,
2014-01-01 21:51:00,26.9,13.3,30.32,NNE,22,2.0,-999.0,56,0.00,,,0.00,Wunderground v.1.15,2014-01-02 02:51:00,
2014-01-01 21:56:00,26.9,13.7,30.31,NNE,24,0.0,-999.0,57,0.00,,,0.00,Wunderground v.1.15,2014-01-02 02:56:00,
2014-01-01 22:01:00,26.9,14.1,30.31,NE,43,2.0,-999.0,58,0.00,,,0.00,Wunderground v.1.15,2014-01-02 03:01:00,
2014-01-01 22:06:00,26.9,14.1,30.31,NNE,19,0.0,-999.0,58,0.00,,,0.00,Wunderground v.1.15,2014-01-02 03:06:00,
2014-01-01 22:11:00,26.9,14.5,30.31,North,5,2.0,-999.0,59,0.00,,,0.00,Wunderground v.1.15,2014-01-02 03:11:00,
2014-01-01 22:16:00,26.7,14.7,30.31,North,11,1.0,-999.0,60,0.00,,,0.00,Wunderground v.1.15,2014-01-02 03:16:00,
2014-01-01 22:21:00,26.7,14.7,30.31,NE,36,2.0,-999.0,60,0.00,,,0.00,Wunderground v.1.15,2014-01-02 03:21:00,
2014-01-01 22:26:00,26.7,15.0,30.31,NE,34,0.0,-999.0,61,0.00,,,0.00,Wunderground v.1.15,2014-01-02 03:26:00,
2014-01-01 22:31:00,26.6,14.9,30.31,NE,39,2.0,-999.0,61,0.00,,,0.00,Wunderground v.1.15,2014-01-02 03:31:00,
2014-01-01 22:36:00,26.6,15.3,30.31,NE,39,0.0,-999.0,62,0.00,,,0.00,Wunderground v.1.15,2014-01-02 03:36:00,
2014-01-01 22:41:00,26.6,15.3,30.32,NE,39,2.0,-999.0,62,0.00,,,0.00,Wunderground v.1.15,2014-01-02 03:41:00,
2014-01-01 22:46:00,26.4,15.5,30.32,NE,51,3.0,-999.0,63,0.00,,,0.00,Wunderground v.1.15,2014-01-02 03:46:00,
2014-01-01 22:51:00,26.4,15.5,30.32,NNE,30,2.0,-999.0,63,0.00,,,0.00,Wunderground v.1.15,2014-01-02 03:51:00,
2014-01-01 22:56:00,26.4,15.9,30.31,NNE,31,2.0,-999.0,64,0.00,,,0.00,Wunderground v.1.15,2014-01-02 03:56:00,
2014-01-01 23:01:00,26.3,15.8,30.31,NNE,31,0.0,-999.0,64,0.00,,,0.00,Wunderground v.1.15,2014-01-02 04:01:00,
2014-01-01 23:06:00,26.3,15.8,30.31,NNE,32,0.0,-999.0,64,0.00,,,0.00,Wunderground v.1.15,2014-01-02 04:06:00,
2014-01-01 23:11:00,26.3,16.1,30.31,NNE,31,3.0,-999.0,65,0.00,,,0.00,Wunderground v.1.15,2014-01-02 04:11:00,
2014-01-01 23:16:00,26.1,15.9,30.31,NNE,31,2.0,-999.0,65,0.00,,,0.00,Wunderground v.1.15,2014-01-02 04:16:00,
2014-01-01 23:21:00,26.1,16.3,30.31,NNE,33,0.0,-999.0,66,0.00,,,0.00,Wunderground v.1.15,2014-01-02 04:21:00,
2014-01-01 23:26:00,26.0,16.5,30.30,NE,34,0.0,-999.0,67,0.00,,,0.00,Wunderground v.1.15,2014-01-02 04:26:00,
2014-01-01 23:31:00,26.0,16.5,30.30,NNE,24,6.0,-999.0,67,0.00,,,0.00,Wunderground v.1.15,2014-01-02 04:31:00,
2014-01-01 23:36:00,25.8,16.7,30.30,NE,37,2.0,-999.0,68,0.00,,,0.00,Wunderground v.1.15,2014-01-02 04:36:00,
2014-01-01 23:41:00,25.7,16.6,30.30,NE,40,3.0,-999.0,68,0.00,,,0.00,Wunderground v.1.15,2014-01-02 04:41:00,
2014-01-01 23:46:00,25.7,16.6,30.30,NNE,30,4.0,-999.0,68,0.00,,,0.00,Wunderground v.1.15,2014-01-02 04:46:00,
2014-01-01 23:51:00,25.6,16.8,30.30,NE,40,0.0,-999.0,69,0.00,,,0.00,Wunderground v.1.15,2014-01-02 04:51:00,
2014-01-01 23:57:00,25.6,16.8,30.29,NE,53,1.0,-999.0,69,0.00,,,0.00,Wunderground v.1.15,2014-01-02 04:57:00,